Regional Weather Roundup
Issued by NWS

Home | Current Version | Previous Version | Graphics & Text | Print | Product List | Glossary On
Versions: 1 2 3 4 5 6 7 8 9 10 11 12 13 14 15 16 17 18 19 20 21 22 23 24 25 26 27 28 29 30 31 32 33 34 35 36 37 38 39 40 41 42 43 44 45 46 47 48 49 50
000
ASUS43 KOAX 290010
RWRNE

WEATHER ROUNDUP FOR NEBRASKA
NATIONAL WEATHER SERVICE OMAHA NE
600 PM CST SUN DEC 28 2014

NOTES: SATELLITE DATA IS BEING USED TO AUGMENT CLOUD COVER ABOVE
       12000 FEET.
       "FAIR" INDICATES FEW OR NO CLOUDS BELOW 12,000 FEET WITH NO
       SIGNIFICANT WEATHER AND/OR OBSTRUCTIONS TO VISIBILITY.

  * THESE STATIONS DO NOT REPORT WEATHER SUCH AS RAIN...SNOW OR FOG.

NEZ001>004-019>022-054>056-290100-
NEBRASKA PANHANDLE

CITY           SKY/WX    TMP DP  RH WIND       PRES   REMARKS
SCOTTSBLUFF    MOCLDY    17  12  80 E8        29.91R WCI   7
6HR MIN TEMP:  17; 6HR MAX TEMP:  33;

ALLIANCE       MOCLDY    22  20  92 E7        29.90S WCI  13
6HR MIN TEMP:  22; 6HR MAX TEMP:  30; 6HR PCP: TRACE;

CHADRON        CLOUDY    23  20  88 N7        29.96R WCI  15
6HR MIN TEMP:  18; 6HR MAX TEMP:  26; 6HR PCP: TRACE;

KIMBALL        MOCLDY    26  14  60 CALM      29.87R
SIDNEY         PTCLDY    12   5  73 SW7       29.91R WCI   1
6HR MIN TEMP:  10; 6HR MAX TEMP:  31;

$$

NEZ057>060-069>072-079>082-290100-
SOUTHWEST NEBRASKA

CITY           SKY/WX    TMP DP  RH WIND       PRES   REMARKS
NORTH PLATTE   CLOUDY    23  16  74 S6        30.00R WCI  16
6HR MIN TEMP:  15; 6HR MAX TEMP:  26;

IMPERIAL       PTCLDY    18  12  77 E5        29.96R WCI  11
6HR MIN TEMP:  15; 6HR MAX TEMP:  28;

LEXINGTON      CLOUDY    26  20  77 E8        30.00F WCI  18
MCCOOK         CLOUDY    24  16  71 E7        30.00R WCI  16
6HR MIN TEMP:  17; 6HR MAX TEMP:  27;

OGALLALA       PTCLDY    19  11  73 N5        29.95S WCI  12
$$

NEZ005>010-023>029-035>040-094-290100-
NORTH CENTRAL NEBRASKA

CITY           SKY/WX    TMP DP  RH WIND       PRES   REMARKS
VALENTINE      CLOUDY    23  14  68 E6        30.03R WCI  16
6HR MIN TEMP:  20; 6HR MAX TEMP:  25;

AINSWORTH      CLOUDY    21  16  79 E7        30.04R WCI  13
BROKEN BOW     CLOUDY    24  17  74 E5        30.02S WCI  18
6HR MIN TEMP:  23; 6HR MAX TEMP:  29;

O`NEILL        CLOUDY    19  16  87 NE7       30.10R WCI  10
ORD            CLOUDY    21  16  81 CALM      30.06R
6HR MIN TEMP:  18; 6HR MAX TEMP:  26;

THEDFORD       CLOUDY    25  19  77 CALM      30.01R
$$

NEZ041-046>049-061>064-073>077-083>087-290100-
SOUTH CENTRAL NEBRASKA

CITY           SKY/WX    TMP DP  RH WIND       PRES   REMARKS
GRAND ISLAND   CLOUDY    24  18  77 E5        30.09R WCI  18
6HR MIN TEMP:  24; 6HR MAX TEMP:  28;

AURORA         CLOUDY    25  20  80 N6        30.09R WCI  18
HASTINGS       CLOUDY    27  20  75 E3        30.06R
6HR MIN TEMP:  23; 6HR MAX TEMP:  30;

HEBRON         CLOUDY    32  24  72 CALM      30.09S
HOLDREGE       CLOUDY    25  19  77 NE3       30.02S
KEARNEY *      CLOUDY    23  18  80 NE5       30.05S WCI  17
YORK           CLOUDY    27  23  86 NE6       30.10R WCI  20
$$

NEZ011>018-030>034-042>045-290100-
NORTHEAST NEBRASKA

CITY           SKY/WX    TMP DP  RH WIND       PRES   REMARKS
NORFOLK        CLOUDY    22  16  78 NE8       30.11R WCI  12
6HR MIN TEMP:  19; 6HR MAX TEMP:  26;

ALBION         PTCLDY    18  12  78 CALM      30.10R
BLAIR          MOCLDY    26  20  77 N7        30.12R WCI  19
COLUMBUS *     CLOUDY    21  12  68 E7        30.13S WCI  13
FREMONT        CLOUDY    26  19  77 N3        30.14S
TEKAMAH        MOCLDY    24  18  77 N8        30.16R WCI  15
6HR MIN TEMP:  24; 6HR MAX TEMP:  27;

WAYNE          CLOUDY    20  16  84 NE3       30.15R
$$

NEZ050>053-065>068-078-088>093-290100-
SOUTHEAST NEBRASKA

CITY           SKY/WX    TMP DP  RH WIND       PRES   REMARKS
LINCOLN        CLOUDY    31  22  69 N7        30.13R WCI  24
6HR MIN TEMP:  28; 6HR MAX TEMP:  35;

OMAHA EPPLEY   MOCLDY    28  22  78 N9        30.15R WCI  19
6HR MIN TEMP:  27; 6HR MAX TEMP:  34;

BEATRICE       CLOUDY    35  24  64 S3        30.10R
FALLS CITY     CLOUDY    37  20  50 CALM      30.12R
6HR MIN TEMP:  36; 6HR MAX TEMP:  42;

NEBRASKA CITY  MOCLDY    33  22  64 CALM      30.12R
PLATTSMOUTH    MOCLDY    31  22  70 CALM      30.13R
$$

NEZ044-045-051>053-067-290100-
OMAHA AREA

CITY           SKY/WX    TMP DP  RH WIND       PRES   REMARKS
OMAHA EPPLEY   MOCLDY    28  22  78 N9        30.15R WCI  19
6HR MIN TEMP:  27; 6HR MAX TEMP:  34;

BLAIR          MOCLDY    26  20  77 N7        30.12R WCI  19
FREMONT        CLOUDY    26  19  77 N3        30.14S
MILLARD        MOCLDY    31  22  70 CALM      30.13S
OFFUTT AFB     PTCLDY    28  23  82 N2        30.12R
PLATTSMOUTH    MOCLDY    31  22  70 CALM      30.13R
WAHOO          CLOUDY    27  20  75 N6        30.12S WCI  20
$$



USA.gov is the U.S. government's official web portal to all federal, state and local government web resources and services.